| time (UTC) | temp C | wind direction | speed KPH | gust KPH | rain 1hr cm | rain 24hr cm | rain mn cm | humidity % | barometer mb |
| 20260503203044 | -17 | 297 | 0.0 | 3.2 | 0.00 | 0.00 | 0.00 | 1010.9 | |
| 20260503201539 | -17 | 262 | 0.0 | 0.0 | 0.00 | 0.00 | 0.00 | 1011.0 | |
| 20260503200008 | -17 | 227 | 0.0 | 1.6 | 0.00 | 0.00 | 0.00 | 1011.2 | |
| 20260503194502 | -17 | 265 | 0.0 | 3.2 | 0.00 | 0.00 | 0.00 | 1011.5 | |
| 20260503193107 | -17 | 265 | 0.0 | 0.0 | 0.00 | 0.00 | 0.00 | 1011.7 | |
| 20260503191549 | -17 | 265 | 0.0 | 3.2 | 0.00 | 0.00 | 0.00 | 1012.0 | |
| 20260503190046 | -17 | 227 | 0.0 | 0.0 | 0.00 | 0.00 | 0.00 | 1012.1 | |
| 20260503184540 | -17 | 244 | 0.0 | 1.6 | 0.00 | 0.00 | 0.00 | 1012.2 | |
| 20260503183043 | -17 | 304 | 0.0 | 0.0 | 0.00 | 0.03 | 0.00 | 1012.4 | |
| 20260503181529 | -17 | 274 | 0.0 | 6.4 | 0.00 | 0.03 | 0.00 | 1012.8 | |
| 20260503180027 | -17 | 274 | 0.0 | 1.6 | 0.00 | 0.03 | 0.00 | 1012.8 | |
| 20260503174528 | -17 | 203 | 0.0 | 0.0 | 0.00 | 0.03 | 0.00 | 1013.0 | |
| 20260503173054 | -17 | 280 | 0.0 | 0.0 | 0.00 | 0.03 | 0.00 | 1013.2 | |
| 20260503171542 | -17 | 284 | 0.0 | 0.0 | 0.00 | 0.03 | 0.00 | 1013.2 | |
| 20260503090115 | -17 | 360 | 0.0 | 0.0 | 0.00 | 0.03 | 0.00 | 1013.4 | |
| 20260503081548 | -17 | 360 | 0.0 | 0.0 | 0.00 | 0.03 | 0.00 | 1013.4 | |
| 20260503071533 | -17 | 360 | 0.0 | 0.0 | 0.00 | 0.03 | 0.00 | 1013.2 | |
| 20260503054537 | -17 | 360 | 0.0 | 0.0 | 0.00 | 0.03 | 0.00 | 1013.3 | |
| 20260503053024 | -17 | 360 | 0.0 | 0.0 | 0.00 | 0.03 | 0.00 | 1013.5 | |
| 20260503051525 | -17 | 360 | 0.0 | 0.0 | 0.00 | 0.03 | 0.00 | 1013.5 | |
| 20260503050018 | -17 | 360 | 0.0 | 0.0 | 0.00 | 0.03 | 0.00 | 1013.5 | |
| 20260503044509 | -17 | 360 | 0.0 | 0.0 | 0.00 | 0.03 | 0.00 | 1013.6 | |
| 20260503043006 | -17 | 360 | 0.0 | 0.0 | 0.00 | 0.03 | 0.00 | 1013.7 | |
| 20260503041531 | -17 | 360 | 0.0 | 0.0 | 0.00 | 0.03 | 0.00 | 1013.7 | |
| 20260503040029 | -17 | 360 | 0.0 | 0.0 | 0.00 | 0.03 | 0.00 | 1013.7 | |
| 20260503034520 | -17 | 360 | 0.0 | 0.0 | 0.00 | 0.03 | 0.00 | 1013.7 | |
| 20260503033018 | -17 | 360 | 0.0 | 0.0 | 0.00 | 0.03 | 0.03 | 1013.6 | |
| 20260503031516 | -17 | 360 | 0.0 | 0.0 | 0.00 | 0.03 | 0.03 | 1013.7 | |
| 20260503030014 | -17 | 360 | 0.0 | 0.0 | 0.00 | 0.03 | 0.03 | 1013.7 | |
| 20260503024539 | -17 | 360 | 0.0 | 0.0 | 0.00 | 0.03 | 0.03 | 1013.7 | |
| 20260503023036 | -17 | 360 | 0.0 | 0.0 | 0.00 | 0.03 | 0.03 | 1013.9 | |
| 20260503021501 | -17 | 360 | 0.0 | 0.0 | 0.00 | 0.03 | 0.03 | 1014.0 | |
| 20260503020057 | -17 | 360 | 0.0 | 0.0 | 0.00 | 0.03 | 0.03 | 1013.9 | |
| 20260503014522 | -17 | 360 | 0.0 | 0.0 | 0.00 | 0.03 | 0.03 | 1013.9 | |
| 20260503013018 | -17 | 360 | 0.0 | 0.0 | 0.00 | 0.03 | 0.03 | 1013.9 | |
| 20260503011511 | -17 | 360 | 0.0 | 0.0 | 0.00 | 0.03 | 0.03 | 1013.9 | |
| 20260503010011 | -17 | 360 | 0.0 | 0.0 | 0.00 | 0.03 | 0.03 | 1013.7 | |
| 20260503004503 | -17 | 360 | 0.0 | 1.6 | 0.00 | 0.03 | 0.03 | 1013.6 | |
| 20260503003103 | -17 | 94 | 0.0 | 0.0 | 0.00 | 0.03 | 0.03 | 1013.3 | |
| 20260503001524 | -17 | 94 | 0.0 | 0.0 | 0.00 | 0.03 | 0.03 | 1013.3 | |
| 20260503000020 | -17 | 92 | 0.0 | 0.0 | 0.00 | 0.03 | 0.03 | 1013.2 | |
| 20260502234513 | -17 | 251 | 0.0 | 0.0 | 0.00 | 0.03 | 0.03 | 1013.1 | |
| 20260502233015 | -17 | 266 | 0.0 | 0.0 | 0.00 | 0.23 | 0.03 | 1013.0 | |
| 20260502231508 | -17 | 316 | 0.0 | 0.0 | 0.00 | 0.23 | 0.03 | 1013.0 | |
| 20260502230101 | -17 | 316 | 0.0 | 0.0 | 0.00 | 0.23 | 0.03 | 1013.1 | |
| 20260502224603 | -17 | 219 | 0.0 | 0.0 | 0.00 | 0.23 | 0.03 | 1013.1 | |
| 20260502223022 | -17 | 251 | 0.0 | 0.0 | 0.00 | 0.23 | 0.03 | 1013.1 | |
| 20260502221517 | -17 | 267 | 0.0 | 0.0 | 0.00 | 0.23 | 0.03 | 1013.0 | |
| 20260502220044 | -17 | 257 | 0.0 | 4.8 | 0.00 | 0.23 | 0.03 | 1013.0 | |
| 20260502214549 | -17 | 296 | 0.0 | 0.0 | 0.00 | 0.23 | 0.03 | 1012.9 | |
| 20260502213032 | -17 | 273 | 0.0 | 0.0 | 0.00 | 0.23 | 0.03 | 1012.9 | |
| 20260502211529 | -17 | 264 | 0.0 | 0.0 | 0.00 | 0.23 | 0.03 | 1012.7 | |
| 20260502210029 | -17 | 335 | 0.0 | 0.0 | 0.00 | 0.23 | 0.03 | 1012.6 | |
| 20260502204519 | -17 | 304 | 0.0 | 1.6 | 0.00 | 0.23 | 0.03 | 1012.7 |